Weather History for Gage, OK

Change the Weather History Date:

Thursday, February 7, 2013

  Actual Average Record
Temperature  
Mean Temperature 44 °F -  
Max Temperature 57 °F 50 °F 72 °F (1952)
Min Temperature 30 °F 19 °F 0 °F (2003)
Degree Days  
Heating Degree Days 20    
Moisture  
Dew Point 38 °F    
Average Humidity 69    
Maximum Humidity 94    
Minimum Humidity 30    
Precipitation  
Precipitation 0.00 in - - ()
Sea Level Pressure  
Sea Level Pressure 29.94 in    
Wind  
Wind Speed 19 mph (North)    
Max Wind Speed 30 mph    
Max Gust Speed 36 mph    
Visibility 10 miles    
Events      
Averages and records for this station are not official NWS values.
T = Trace of Precipitation, MM = Missing Value Source: NWS Daily Summary

Daily Weather History Graph

Daily Weather History Graph

Search for Another Location

Airport:

Trip Planner

Search our weather history database for the weather conditions in past years. The results will help you decide how hot, cold, wet, or windy it might be!

Date:

Astronomy

Feb. 07, 2013 Rise Set
Actual Time 7:34 AM CST 6:12 PM CST
Civil Twilight 7:08 AM CST 6:38 PM CST
Nautical Twilight 6:37 AM CST 7:09 PM CST
Astronomical Twilight 6:07 AM CST 7:39 PM CST
Moon 5:13 AM CST (2/7) 3:40 PM CST (2/7)
Length of Visible Light 11h 30m
Length of Day
10h 37m
Waning Crescent, 9% of the Moon is Illuminated
Feb 7
Waning Crescent
Feb 10
New
Feb 17
First Quarter
Feb 25
Full
Mar 4
Last Quarter

Hourly Weather History & Observations

Time (CST) Temp. Windchill Dew Point Humidity Pressure Visibility Wind Dir Wind Speed Gust Speed Precip Events Conditions
12:53 AM 55.0 °F - 53.1 °F 93% 29.70 in 10.0 mi South 29.9 mph 34.5 mph N/A   Partly Cloudy
1:11 AM 55.4 °F - 53.6 °F 94% 29.74 in 10.0 mi South 27.6 mph 35.7 mph N/A   Mostly Cloudy
1:53 AM 55.9 °F - 53.1 °F 90% 29.70 in 10.0 mi South 28.8 mph - N/A   Overcast
2:40 AM 55.4 °F - 51.8 °F 88% 29.74 in 10.0 mi South 21.9 mph 28.8 mph N/A   Partly Cloudy
2:53 AM 55.0 °F - 52.0 °F 89% 29.70 in 10.0 mi South 21.9 mph 29.9 mph N/A   Partly Cloudy
3:53 AM 53.1 °F - 51.1 °F 93% 29.74 in 10.0 mi WNW 9.2 mph - N/A   Partly Cloudy
4:05 AM 53.6 °F - 51.8 °F 94% 29.78 in 10.0 mi WNW 9.2 mph - N/A   Mostly Cloudy
4:53 AM 54.0 °F - 51.1 °F 90% 29.77 in 10.0 mi NW 6.9 mph - N/A   Overcast
5:03 AM 53.6 °F - 51.8 °F 94% 29.81 in 10.0 mi NW 4.6 mph - N/A   Overcast
5:27 AM 53.6 °F - 51.8 °F 94% 29.82 in 10.0 mi NNW 6.9 mph - N/A   Overcast
5:40 AM 53.6 °F - 51.8 °F 94% 29.82 in 10.0 mi NNW 10.4 mph - N/A   Overcast
5:53 AM 54.0 °F - 51.1 °F 90% 29.79 in 10.0 mi NNW 9.2 mph - N/A   Overcast
6:07 AM 53.6 °F - 50.0 °F 88% 29.83 in 9.0 mi NNW 18.4 mph 23.0 mph N/A   Overcast
6:18 AM 51.8 °F - 50.0 °F 94% 29.84 in 8.0 mi North 20.7 mph 26.5 mph N/A   Overcast
6:53 AM 46.9 °F - 39.9 °F 77% 29.85 in 10.0 mi North 21.9 mph 35.7 mph N/A   Overcast
7:03 AM 46.4 °F 38.1 °F 39.2 °F 76% 29.87 in 10.0 mi North 24.2 mph 34.5 mph N/A   Overcast
7:53 AM 46.0 °F 37.6 °F 37.9 °F 73% 29.91 in 10.0 mi North 24.2 mph 33.4 mph N/A   Overcast
8:14 AM 46.4 °F 39.0 °F 39.2 °F 76% 29.94 in 10.0 mi North 19.6 mph 29.9 mph N/A   Overcast
8:53 AM 46.0 °F 38.5 °F 39.9 °F 79% 29.95 in 10.0 mi North 19.6 mph 28.8 mph N/A   Overcast
9:53 AM 46.9 °F - 36.0 °F 66% 29.99 in 10.0 mi NNE 24.2 mph 32.2 mph N/A   Overcast
10:15 AM 46.4 °F 38.5 °F 35.6 °F 66% 30.02 in 10.0 mi North 21.9 mph 32.2 mph N/A   Mostly Cloudy
10:53 AM 45.0 °F 36.6 °F 33.1 °F 63% 30.04 in 10.0 mi North 21.9 mph 34.5 mph N/A   Overcast
11:53 AM 48.9 °F - 32.0 °F 52% 30.04 in 10.0 mi North 25.3 mph 32.2 mph N/A   Mostly Cloudy
12:07 PM 53.6 °F - 32.0 °F 44% 30.06 in 10.0 mi North 28.8 mph 32.2 mph N/A   Mostly Cloudy
12:53 PM 55.0 °F - 30.0 °F 38% 30.03 in 10.0 mi NNE 25.3 mph 35.7 mph N/A   Clear
1:53 PM 55.9 °F - 26.1 °F 32% 30.03 in 10.0 mi North 23.0 mph 32.2 mph N/A   Clear
2:53 PM 57.0 °F - 26.1 °F 30% 30.04 in 10.0 mi North 21.9 mph 32.2 mph N/A   Clear
3:53 PM 57.9 °F - 26.1 °F 30% 30.04 in 10.0 mi North 13.8 mph 27.6 mph N/A   Clear
4:53 PM 57.0 °F - 26.1 °F 30% 30.05 in 10.0 mi NNE 15.0 mph - N/A   Clear
5:53 PM 53.1 °F - 23.0 °F 31% 30.09 in 10.0 mi NNE 11.5 mph - N/A   Clear
6:53 PM 44.1 °F 40.8 °F 21.9 °F 42% 30.14 in 10.0 mi NNE 5.8 mph - N/A   Clear
7:53 PM 39.0 °F - 21.9 °F 50% 30.17 in 10.0 mi Calm Calm - N/A   Clear
8:53 PM 37.9 °F - 21.9 °F 53% 30.20 in 10.0 mi Calm Calm - N/A   Clear
9:53 PM 32.0 °F 28.7 °F 21.9 °F 66% 30.22 in 10.0 mi West 3.5 mph - N/A   Clear
10:53 PM 34.0 °F 31.0 °F 21.9 °F 61% 30.23 in 10.0 mi WSW 3.5 mph - N/A   Clear
11:53 PM 30.0 °F - 21.0 °F 69% 30.24 in 10.0 mi Calm Calm - N/A   Clear